User: anonymous   Login
Location: Hylvaty SDH
(49.9612°N, 16.4057°E)
Time: 21:35:50
(UTC+02:00)
Language:

deb Explorer IX - Orbit

View from above orbital plane
View from above orbital plane
View from above satellite
View from above satellite

Ground track
Ground track

The orbit data is extracted from the following two-line orbital elements,

1    85U 61004C   20268.26682486  .00000323  00000-0  89754-4 0  9999
2    85  38.7712 236.7963 0393004  79.4966 284.9803 14.21068374945131
Epoch (UTC): 24 September 2020 06:24:13
Eccentricity: 0.0393004
inclination: 38.7712°
perigee height: 539 km
apogee height: 1105 km
right ascension of ascending node: 236.7963°
argument of perigee: 79.4966°
revolutions per day: 14.21068374
mean anomaly at epoch: 284.9803°
orbit number at epoch: 94513

The dashed part of the orbit path shows where the satellite is in the earth's shadow,  

DLR